Silverthorne, CO

5:15 AM MDT on August 24, 2016 (GMT -0600)
Kremmling

Weather History for K20V - November, 2011

Change the Weather History Date:

Wednesday, November 9, 2011

  Actual Average Record
Temperature  
Mean Temperature 22 °F -  
Max Temperature 35 °F - 64 °F (2005)
Min Temperature 8 °F - 8 °F (2011)
Degree Days  
Heating Degree Days 44    
Month to date heating degree days  
Cooling Degree Days 0    
Month to date cooling degree days  
Moisture  
Dew Point 9 °F    
Average Humidity 64    
Maximum Humidity 86    
Minimum Humidity 33    
Precipitation  
Precipitation 0.00 in - 0.14 in (2004)
Sea Level Pressure  
Sea Level Pressure 30.46 in    
Wind  
Wind Speed 0 mph (ENE)    
Max Wind Speed 5 mph    
Max Gust Speed -    
Visibility 10 miles    
Events      
T = Trace of Precipitation, MM = Missing Value Source: NWS Daily Summary

Daily Weather History Graph

Daily Weather History Graph

Search for Another Location

Airport or City:

Trip Planner

Search our weather history database for the weather conditions in past years. The results will help you decide how hot, cold, wet, or windy it might be!

Date:

Astronomy

Nov. 09, 2011 Rise Set
Actual Time 6:43 AM MST 4:54 PM MST
Civil Twilight 6:14 AM MST 5:23 PM MST
Nautical Twilight 5:42 AM MST 5:55 PM MST
Astronomical Twilight 5:10 AM MST 6:27 PM MST
Moon 4:07 PM MST (11/9) 5:41 AM MST (11/9)
Length of Visible Light 11h 08m
Length of Day
10h 10m
Waxing Gibbous, 99% of the Moon is Illuminated
Nov 9
Waxing Gibbous
Nov 10
Full
Nov 18
Last Quarter
Nov 24
New
Dec 2
First Quarter

Hourly Weather History & Observations

Time (MST) Temp. Windchill Dew Point Humidity Pressure Visibility Wind Dir Wind Speed Gust Speed Precip Events Conditions
12:06 AM 14.0 °F - 10.4 °F 86% 30.39 in 10.0 mi Calm Calm - N/A   Clear
12:26 AM 14.0 °F - 10.4 °F 86% 30.40 in 7.0 mi Calm Calm - N/A   Clear
12:46 AM 14.0 °F - 10.4 °F 86% 30.40 in 7.0 mi Calm Calm - N/A   Clear
1:06 AM 12.2 °F - 8.6 °F 85% 30.40 in 10.0 mi Calm Calm - N/A   Clear
1:26 AM 12.2 °F - 8.6 °F 85% 30.40 in 10.0 mi Calm Calm - N/A   Clear
1:46 AM 12.2 °F - 8.6 °F 85% 30.40 in 10.0 mi Calm Calm - N/A   Clear
2:06 AM 12.2 °F - 8.6 °F 85% 30.41 in 7.0 mi Calm Calm - N/A   Clear
2:26 AM 12.2 °F - 6.8 °F 79% 30.41 in 10.0 mi Calm Calm - N/A   Clear
2:46 AM 12.2 °F - 8.6 °F 85% 30.42 in 10.0 mi Calm Calm - N/A   Clear
3:06 AM 12.2 °F - 5.0 °F 73% 30.42 in 10.0 mi Calm Calm - N/A   Clear
3:26 AM 10.4 °F - 5.0 °F 79% 30.41 in 10.0 mi Calm Calm - N/A   Clear
3:46 AM 10.4 °F - 5.0 °F 79% 30.42 in 10.0 mi Calm Calm - N/A   Scattered Clouds
4:06 AM 10.4 °F - 6.8 °F 85% 30.44 in 10.0 mi Calm Calm - N/A   Scattered Clouds
4:26 AM 10.4 °F - 5.0 °F 79% 30.44 in 10.0 mi Calm Calm - N/A   Clear
4:46 AM 10.4 °F 4.0 °F 5.0 °F 79% 30.45 in 10.0 mi West 3.5 mph - N/A   Clear
5:06 AM 10.4 °F - 5.0 °F 79% 30.46 in 10.0 mi Calm Calm - N/A   Clear
5:26 AM 10.4 °F - 5.0 °F 79% 30.46 in 10.0 mi Calm Calm - N/A   Clear
5:45 AM 10.4 °F - 5.0 °F 79% 30.47 in 10.0 mi Calm Calm - N/A   Clear
6:06 AM 10.4 °F - 5.0 °F 79% 30.48 in 7.0 mi Calm Calm - N/A   Clear
6:26 AM 8.6 °F - 3.2 °F 79% 30.49 in 10.0 mi Calm Calm - N/A   Clear
6:46 AM 8.6 °F - 3.2 °F 79% 30.49 in 10.0 mi Calm Calm - N/A   Clear
7:06 AM 10.4 °F - 5.0 °F 79% 30.51 in 10.0 mi Calm Calm - N/A   Scattered Clouds
7:26 AM 10.4 °F - 6.8 °F 85% 30.52 in 10.0 mi Calm Calm - N/A   Scattered Clouds
7:46 AM 12.2 °F - 8.6 °F 85% 30.52 in 10.0 mi Calm Calm - N/A   Clear
8:06 AM 14.0 °F - 8.6 °F 79% 30.52 in 10.0 mi Calm Calm - N/A   Clear
8:26 AM 17.6 °F - 10.4 °F 73% 30.52 in 10.0 mi Calm Calm - N/A   Clear
8:46 AM 17.6 °F - 10.4 °F 73% 30.52 in 10.0 mi Calm Calm - N/A   Clear
9:06 AM 17.6 °F - 10.4 °F 73% 30.52 in 10.0 mi Calm Calm - N/A   Clear
9:26 AM 19.4 °F - 10.4 °F 68% 30.52 in 10.0 mi Calm Calm - N/A   Clear
9:46 AM 21.2 °F - 12.2 °F 68% 30.53 in 10.0 mi Calm Calm - N/A   Clear
10:26 AM 23.0 °F - 12.2 °F 63% 30.53 in 10.0 mi Calm Calm - N/A   Clear
10:46 AM 26.6 °F - 14.0 °F 59% 30.52 in 10.0 mi Calm Calm - N/A   Clear
11:26 AM 30.2 °F - 14.0 °F 51% 30.51 in 10.0 mi Calm Calm - N/A   Clear
11:46 AM 30.2 °F - 14.0 °F 51% 30.50 in 10.0 mi Calm Calm - N/A   Clear
12:06 PM 32.0 °F - 14.0 °F 48% 30.49 in 10.0 mi Calm Calm - N/A   Clear
12:26 PM 32.0 °F - 12.2 °F 44% 30.49 in 10.0 mi Calm Calm - N/A   Clear
12:46 PM 33.8 °F - 14.0 °F 44% 30.48 in 10.0 mi Calm Calm - N/A   Clear
1:06 PM 33.8 °F - 12.2 °F 41% 30.47 in 10.0 mi Calm Calm - N/A   Clear
1:26 PM 33.8 °F - 12.2 °F 41% 30.47 in 10.0 mi Calm Calm - N/A   Clear
1:46 PM 35.6 °F - 12.2 °F 38% 30.46 in 10.0 mi Calm Calm - N/A   Clear
2:06 PM 35.6 °F - 10.4 °F 35% 30.45 in 10.0 mi Calm Calm - N/A   Clear
2:26 PM 35.6 °F 31.7 °F 10.4 °F 35% 30.45 in 10.0 mi NNE 4.6 mph - N/A   Clear
2:46 PM 35.6 °F - 8.6 °F 33% 30.44 in 10.0 mi Calm Calm - N/A   Clear
3:06 PM 35.6 °F - 8.6 °F 33% 30.44 in 10.0 mi Calm Calm - N/A   Clear
3:25 PM 35.6 °F - 8.6 °F 33% 30.44 in 10.0 mi Calm Calm - N/A   Clear
3:46 PM 35.6 °F 32.8 °F 8.6 °F 33% 30.44 in 10.0 mi WNW 3.5 mph - N/A   Clear
4:05 PM 35.6 °F - 8.6 °F 33% 30.44 in 10.0 mi Calm Calm - N/A   Clear
4:46 PM 33.8 °F - 10.4 °F 38% 30.44 in 10.0 mi Calm Calm - N/A   Clear
5:06 PM 30.2 °F - 14.0 °F 51% 30.44 in 10.0 mi Calm Calm - N/A   Clear
5:45 PM 28.4 °F - 14.0 °F 55% 30.45 in 10.0 mi Calm Calm - N/A   Clear
6:06 PM 26.6 °F 21.2 °F 12.2 °F 55% 30.46 in 10.0 mi NNE 4.6 mph - N/A   Clear
6:25 PM 23.0 °F 18.4 °F 12.2 °F 63% 30.46 in 10.0 mi ESE 3.5 mph - N/A   Clear
6:46 PM 23.0 °F - 12.2 °F 63% 30.47 in 10.0 mi Calm Calm - N/A   Clear
7:06 PM 23.0 °F 17.0 °F 10.4 °F 59% 30.47 in 10.0 mi East 4.6 mph - N/A   Clear
7:26 PM 23.0 °F 18.4 °F 10.4 °F 59% 30.47 in 10.0 mi East 3.5 mph - N/A   Clear
7:46 PM 21.2 °F - 10.4 °F 63% 30.47 in 10.0 mi Calm Calm - N/A   Clear
8:06 PM 21.2 °F 16.4 °F 10.4 °F 63% 30.48 in 10.0 mi SSE 3.5 mph - N/A   Clear
8:26 PM 21.2 °F - 10.4 °F 63% 30.49 in 10.0 mi Calm Calm - N/A   Clear
9:06 PM 17.6 °F 10.7 °F 10.4 °F 73% 30.50 in 10.0 mi SE 4.6 mph - N/A   Clear
9:26 PM 17.6 °F - 10.4 °F 73% 30.51 in 10.0 mi Calm Calm - N/A   Clear
9:46 PM 19.4 °F - 10.4 °F 68% 30.51 in 10.0 mi Calm Calm - N/A   Clear
10:06 PM 17.6 °F - 10.4 °F 73% 30.51 in 10.0 mi Calm Calm - N/A   Clear
10:26 PM 19.4 °F - 10.4 °F 68% 30.51 in 10.0 mi Calm Calm - N/A   Clear
10:45 PM 14.0 °F - 8.6 °F 79% 30.52 in 10.0 mi Calm Calm - N/A   Clear
11:05 PM 15.8 °F - 8.6 °F 73% 30.52 in 4.0 mi Calm Calm - N/A   Haze
11:26 PM 14.0 °F - 10.4 °F 86% 30.52 in 10.0 mi Calm Calm - N/A   Clear
11:46 PM 14.0 °F - 8.6 °F 79% 30.52 in 10.0 mi Calm Calm - N/A   Clear